Observations for Trim Patrick St
| Time | AQI | Temp °C | Hum % | Pres Pa | CO μg/m³ | H₂S μg/m³ | NO μg/m³ | NO₂ μg/m³ | O₃ μg/m³ | SO₂ μg/m³ | PM1 μg/m³ | PM2.5 μg/m³ | PM10 μg/m³ |
|---|---|---|---|---|---|---|---|---|---|---|---|---|---|
| Tuesday 4 August 2026 | |||||||||||||
| 03:24 | 1 | 16.4 | 87 | 38,459 | 0.16 | 0 | 1.41 | 26.77 | 43.1 | 0 | 8.86 | 13 | 14.3 |
| 03:23 | 1 | 16.3 | 87 | 38,459 | 0.17 | 0 | 1.43 | 16.04 | 25.99 | 0 | 9.71 | 12.31 | 13.54 |
| 03:22 | 1 | 16.3 | 87 | 38,459 | 0.18 | 0 | 1.51 | 24.45 | 40.45 | 0 | 9.71 | 12.31 | 13.54 |
| 03:21 | 1 | 16.3 | 87 | 38,459 | 0.16 | 0 | 1.55 | 24.7 | 35.07 | 0 | 8.86 | 13 | 14.3 |
| 03:20 | 1 | 16.4 | 87 | 38,459 | 0.16 | 0 | 1.28 | 25.05 | 43.1 | 0 | 8.86 | 11.63 | 12.79 |
| 03:19 | 1 | 16.4 | 87 | 38,459 | 0.16 | 0 | 1.1 | 26.53 | 48.37 | 0 | 8.86 | 11.63 | 12.79 |
| 03:18 | 1 | 16.3 | 87 | 38,459 | 0.17 | 0 | 1.3 | 23.47 | 34.58 | 0 | 7.14 | 12.31 | 13.54 |
| 03:17 | 1 | 16.3 | 87 | 38,459 | 0.16 | 0 | 1.23 | 23.21 | 35.74 | 0 | 8 | 11.63 | 12.79 |
| 03:16 | 1 | 16.3 | 87 | 38,460 | 0.16 | 0 | 1.28 | 24.95 | 30.68 | 0 | 8.86 | 13.68 | 15.05 |
| 03:15 | 1 | 16.3 | 87 | 38,460 | 0.17 | 0 | 1.26 | 23.96 | 41.11 | 0 | 7.14 | 10.26 | 11.28 |
| 03:14 | 1 | 16.3 | 87 | 38,460 | 0.16 | 0 | 1.46 | 18.36 | 30.61 | 0 | 8 | 12.31 | 13.54 |
| 03:13 | 1 | 16.3 | 87 | 38,460 | 0.16 | 0 | 1.42 | 28.03 | 46.36 | 0 | 8.86 | 12.31 | 13.54 |
| 03:12 | 1 | 16.3 | 87 | 38,460 | 0.16 | 0 | 1.37 | 22.41 | 29.38 | 0 | 7.14 | 11.62 | 12.78 |
| 03:11 | 1 | 16.3 | 87 | 38,460 | 0.16 | 0 | 1.4 | 25.42 | 41.29 | 0 | 7.14 | 10.26 | 11.28 |
| 03:10 | 1 | 16.3 | 87 | 38,460 | 0.16 | 0 | 1.25 | 25.31 | 46.74 | 0 | 8.86 | 10.97 | 12.06 |
| 03:09 | 1 | 16.3 | 87 | 38,460 | 0.16 | 0 | 1.21 | 24.44 | 35.86 | 0 | 8 | 11.63 | 12.8 |
| 03:08 | 1 | 16.3 | 87 | 38,460 | 0.16 | 0 | 1.25 | 23.95 | 43.03 | 0 | 6.29 | 9.58 | 10.54 |
| 03:07 | 1 | 16.3 | 87 | 38,460 | 0.14 | 0 | 1.14 | 26.37 | 45.59 | 0 | 8.86 | 11.63 | 12.79 |
| 03:06 | 1 | 16.3 | 87 | 38,460 | 0.16 | 0 | 1.13 | 23.46 | 43.04 | 0 | 8 | 10.95 | 12.04 |
| 03:05 | 1 | 16.3 | 87 | 38,460 | 0.15 | 0 | 1.54 | 24.44 | 47.39 | 0 | 7.14 | 10.26 | 11.29 |